Location: Veytaux
(46.4185°N, 6.9320°E)
Time: 07:48:26
(UTC+00:00)

Cosmos 2150 Rocket - Pass Details

Date: 27 May 2022
Orbit: 749 x 807 km, 74.0° (Epoch: 01 July)

Event Time Altitude Azimuth Distance (km) Brightness Sun altitude
Exits shadow 00:32:40 40° 230° (SW) 1,102 4.4 -20.8°
Maximum altitude 00:34:23 64° 294° (WNW) 837 4.1 -20.7°
Drops below altitude 10° 00:39:31 10° 16° (NNE) 2,281 7.7 -20.5°
Sets 00:41:54 0° 20° (NNE) 3,207 8.8 -20.4°
